| time (UTC) | temp F | wind direction | speed MPH | gust MPH | rain 1hr in | rain 24hr in | rain mn in | humidity % | barometer mb |
| 20260506175051 | 78 | 54 | 0.0 | 7.0 | 0.00 | 0.00 | 0.00 | 85 | 1010.6 |
| 20260506174552 | 78 | 57 | 2.0 | 7.0 | 0.00 | 0.00 | 0.00 | 85 | 1010.8 |
| 20260506174049 | 77 | 24 | 2.0 | 5.0 | 0.00 | 0.00 | 0.00 | 85 | 1010.8 |
| 20260506173549 | 77 | 51 | 1.0 | 5.0 | 0.00 | 0.00 | 0.00 | 86 | 1010.8 |
| 20260506173112 | 77 | 0 | 0.0 | 3.0 | 0.00 | 0.00 | 0.00 | 87 | 1010.8 |
| 20260506172549 | 76 | 69 | 0.0 | 5.0 | 0.00 | 0.00 | 0.00 | 88 | 1010.8 |
| 20260506172050 | 76 | 0 | 0.0 | 5.0 | 0.00 | 0.00 | 0.00 | 88 | 1010.8 |
| 20260506171556 | 76 | 68 | 0.0 | 5.0 | 0.00 | 0.00 | 0.00 | 88 | 1010.9 |
| 20260506171049 | 76 | 0 | 0.0 | 4.0 | 0.00 | 0.00 | 0.00 | 88 | 1010.9 |
| 20260506170550 | 76 | 0 | 1.0 | 4.0 | 0.00 | 0.00 | 0.00 | 87 | 1010.9 |
| 20260506170056 | 76 | 53 | 0.0 | 4.0 | 0.00 | 0.00 | 0.00 | 87 | 1010.9 |
| 20260506165629 | 76 | 0 | 0.0 | 4.0 | 0.00 | 0.00 | 0.00 | 87 | 1010.9 |
| 20260506165053 | 77 | 0 | 0.0 | 4.0 | 0.00 | 0.00 | 0.00 | 86 | 1010.9 |
| 20260506164553 | 77 | 36 | 1.0 | 4.0 | 0.00 | 0.00 | 0.00 | 86 | 1010.9 |
| 20260506164049 | 77 | 82 | 1.0 | 5.0 | 0.00 | 0.00 | 0.00 | 87 | 1011.0 |
| 20260506163550 | 77 | 86 | 1.0 | 5.0 | 0.00 | 0.00 | 0.00 | 87 | 1010.9 |
| 20260506163102 | 76 | 0 | 1.0 | 4.0 | 0.00 | 0.00 | 0.00 | 87 | 1010.9 |
| 20260506162549 | 76 | 59 | 1.0 | 4.0 | 0.00 | 0.00 | 0.00 | 87 | 1010.8 |
| 20260506162049 | 76 | 0 | 1.0 | 4.0 | 0.00 | 0.00 | 0.00 | 88 | 1010.8 |
| 20260506161559 | 76 | 54 | 1.0 | 4.0 | 0.00 | 0.00 | 0.00 | 89 | 1010.8 |
| 20260506161049 | 76 | 67 | 1.0 | 5.0 | 0.00 | 0.00 | 0.00 | 89 | 1010.8 |
| 20260506160549 | 76 | 96 | 1.0 | 5.0 | 0.00 | 0.00 | 0.00 | 89 | 1010.7 |
| 20260506160052 | 76 | 68 | 0.0 | 3.0 | 0.00 | 0.00 | 0.00 | 91 | 1010.8 |
| 20260506155548 | 76 | 88 | 0.0 | 3.0 | 0.00 | 0.00 | 0.00 | 91 | 1010.7 |
| 20260506155049 | 75 | 0 | 0.0 | 4.0 | 0.00 | 0.00 | 0.00 | 92 | 1010.6 |
| 20260506154602 | 75 | 0 | 0.0 | 4.0 | 0.00 | 0.00 | 0.00 | 92 | 1010.5 |
| 20260506154053 | 75 | 0 | 0.0 | 2.0 | 0.00 | 0.00 | 0.00 | 93 | 1010.4 |
| 20260506153553 | 75 | 0 | 0.0 | 2.0 | 0.00 | 0.00 | 0.00 | 93 | 1010.3 |
| 20260506153053 | 74 | 0 | 0.0 | 1.0 | 0.00 | 0.00 | 0.00 | 93 | 1010.2 |
| 20260506152553 | 74 | 0 | 0.0 | 2.0 | 0.00 | 0.00 | 0.00 | 93 | 1010.2 |
| 20260506152057 | 74 | 0 | 0.0 | 3.0 | 0.00 | 0.00 | 0.00 | 93 | 1010.2 |
| 20260506151555 | 74 | 0 | 0.0 | 3.0 | 0.00 | 0.00 | 0.00 | 93 | 1010.1 |
| 20260506151049 | 74 | 0 | 0.0 | 3.0 | 0.00 | 0.00 | 0.00 | 93 | 1010.0 |
| 20260506150549 | 74 | 118 | 0.0 | 2.0 | 0.00 | 0.00 | 0.00 | 93 | 1010.0 |
| 20260506150053 | 74 | 0 | 0.0 | 2.0 | 0.00 | 0.00 | 0.00 | 93 | 1009.8 |
| 20260506145551 | 74 | 0 | 0.0 | 2.0 | 0.00 | 0.00 | 0.00 | 92 | 1009.8 |
| 20260506145048 | 74 | 0 | 0.0 | 2.0 | 0.00 | 0.00 | 0.00 | 92 | 1009.9 |
| 20260506144554 | 74 | 0 | 0.0 | 2.0 | 0.00 | 0.00 | 0.00 | 92 | 1009.9 |
| 20260506144049 | 74 | 0 | 0.0 | 2.0 | 0.00 | 0.00 | 0.00 | 91 | 1009.9 |
| 20260506143550 | 74 | 0 | 0.0 | 2.0 | 0.00 | 0.00 | 0.00 | 91 | 1009.9 |
| 20260506143052 | 74 | 0 | 0.0 | 2.0 | 0.00 | 0.00 | 0.00 | 91 | 1009.8 |
| 20260506142549 | 74 | 119 | 0.0 | 2.0 | 0.00 | 0.00 | 0.00 | 91 | 1009.8 |
| 20260506142052 | 74 | 0 | 0.0 | 1.0 | 0.00 | 0.00 | 0.00 | 91 | 1009.6 |
| 20260506141556 | 74 | 0 | 0.0 | 1.0 | 0.00 | 0.00 | 0.00 | 91 | 1009.5 |
| 20260506141050 | 74 | 0 | 0.0 | 2.0 | 0.00 | 0.00 | 0.00 | 92 | 1009.4 |
| 20260506140549 | 74 | 0 | 0.0 | 3.0 | 0.00 | 0.00 | 0.00 | 92 | 1009.3 |
| 20260506140100 | 74 | 0 | 0.0 | 3.0 | 0.00 | 0.00 | 0.00 | 92 | 1009.4 |
| 20260506135550 | 74 | 119 | 1.0 | 3.0 | 0.00 | 0.00 | 0.00 | 92 | 1009.2 |
| 20260506135055 | 74 | 116 | 0.0 | 7.0 | 0.00 | 0.00 | 0.00 | 92 | 1009.0 |
| 20260506134553 | 73 | 115 | 0.0 | 7.0 | 0.00 | 0.00 | 0.00 | 92 | 1008.8 |
| 20260506134052 | 73 | 117 | 2.0 | 7.0 | 0.00 | 0.00 | 0.00 | 92 | 1008.8 |
| 20260506133554 | 73 | 0 | 2.0 | 7.0 | 0.00 | 0.00 | 0.00 | 92 | 1008.8 |
| 20260506133102 | 73 | 0 | 0.0 | 5.0 | 0.00 | 0.00 | 0.00 | 92 | 1008.6 |
| 20260506132553 | 73 | 150 | 1.0 | 5.0 | 0.00 | 0.00 | 0.00 | 92 | 1008.6 |
| 20260506132054 | 73 | 0 | 0.0 | 6.0 | 0.00 | 0.00 | 0.00 | 92 | 1008.7 |
| 20260506131559 | 73 | 157 | 0.0 | 6.0 | 0.00 | 0.00 | 0.00 | 92 | 1008.5 |
| 20260506131054 | 73 | 118 | 0.0 | 8.0 | 0.00 | 0.00 | 0.00 | 92 | 1008.4 |
| 20260506130554 | 73 | 118 | 1.0 | 8.0 | 0.00 | 0.00 | 0.00 | 92 | 1008.3 |
| 20260506130055 | 73 | 132 | 1.0 | 5.0 | 0.00 | 0.00 | 0.00 | 92 | 1008.3 |
| 20260506125555 | 73 | 109 | 1.0 | 5.0 | 0.00 | 0.00 | 0.00 | 92 | 1008.3 |
| 20260506125053 | 73 | 132 | 0.0 | 7.0 | 0.00 | 0.00 | 0.00 | 92 | 1008.2 |
| 20260506124554 | 73 | 132 | 1.0 | 7.0 | 0.00 | 0.00 | 0.00 | 92 | 1008.3 |
| 20260506124054 | 74 | 0 | 2.0 | 7.0 | 0.00 | 0.00 | 0.00 | 92 | 1008.2 |
| 20260506123554 | 74 | 136 | 0.0 | 5.0 | 0.00 | 0.00 | 0.00 | 92 | 1008.2 |
| 20260506123056 | 74 | 138 | 1.0 | 5.0 | 0.00 | 0.00 | 0.00 | 92 | 1008.3 |
| 20260506122554 | 74 | 0 | 0.0 | 3.0 | 0.00 | 0.00 | 0.00 | 92 | 1008.2 |
| 20260506122053 | 74 | 0 | 0.0 | 3.0 | 0.00 | 0.00 | 0.00 | 92 | 1008.3 |
| 20260506121600 | 74 | 182 | 0.0 | 3.0 | 0.00 | 0.00 | 0.00 | 91 | 1008.3 |
| 20260506121054 | 74 | 0 | 0.0 | 2.0 | 0.00 | 0.00 | 0.00 | 91 | 1008.3 |
| 20260506120554 | 74 | 0 | 0.0 | 3.0 | 0.00 | 0.00 | 0.00 | 91 | 1008.4 |
| 20260506120109 | 74 | 184 | 0.0 | 4.0 | 0.00 | 0.00 | 0.00 | 91 | 1008.2 |
| 20260506115553 | 74 | 185 | 1.0 | 4.0 | 0.00 | 0.00 | 0.00 | 91 | 1008.2 |
| 20260506115053 | 74 | 185 | 1.0 | 4.0 | 0.00 | 0.00 | 0.00 | 91 | 1008.2 |
| 20260506114610 | 74 | 190 | 1.0 | 4.0 | 0.00 | 0.00 | 0.00 | 91 | 1008.2 |
| 20260506114054 | 74 | 0 | 0.0 | 4.0 | 0.00 | 0.00 | 0.00 | 91 | 1008.1 |
| 20260506113554 | 74 | 0 | 1.0 | 5.0 | 0.00 | 0.00 | 0.00 | 91 | 1008.2 |
| 20260506113053 | 74 | 190 | 1.0 | 6.0 | 0.00 | 0.00 | 0.00 | 91 | 1008.1 |
| 20260506112557 | 74 | 184 | 2.0 | 6.0 | 0.00 | 0.00 | 0.00 | 91 | 1008.1 |
| 20260506112052 | 74 | 194 | 1.0 | 6.0 | 0.00 | 0.00 | 0.00 | 91 | 1008.0 |
| 20260506111555 | 74 | 156 | 1.0 | 5.0 | 0.00 | 0.00 | 0.00 | 91 | 1008.0 |
| 20260506111052 | 74 | 0 | 1.0 | 5.0 | 0.00 | 0.00 | 0.00 | 91 | 1008.0 |
| 20260506110553 | 74 | 154 | 0.0 | 8.0 | 0.00 | 0.00 | 0.00 | 91 | 1008.1 |
| 20260506110054 | 74 | 152 | 2.0 | 8.0 | 0.00 | 0.00 | 0.00 | 91 | 1008.1 |
| 20260506105556 | 74 | 184 | 1.0 | 5.0 | 0.00 | 0.00 | 0.00 | 91 | 1008.2 |
| 20260506105052 | 74 | 155 | 1.0 | 4.0 | 0.00 | 0.00 | 0.00 | 91 | 1008.0 |
| 20260506104558 | 74 | 0 | 1.0 | 5.0 | 0.00 | 0.00 | 0.00 | 91 | 1007.8 |
| 20260506104052 | 74 | 0 | 1.0 | 5.0 | 0.00 | 0.00 | 0.00 | 91 | 1007.9 |
| 20260506103553 | 74 | 171 | 0.0 | 5.0 | 0.00 | 0.00 | 0.00 | 91 | 1007.9 |
| 20260506103057 | 74 | 193 | 1.0 | 4.0 | 0.00 | 0.00 | 0.00 | 91 | 1007.9 |
| 20260506102555 | 74 | 194 | 1.0 | 7.0 | 0.00 | 0.00 | 0.00 | 91 | 1007.9 |
| 20260506102055 | 74 | 172 | 1.0 | 7.0 | 0.00 | 0.00 | 0.00 | 90 | 1007.9 |
| 20260506101557 | 74 | 155 | 1.0 | 6.0 | 0.00 | 0.00 | 0.00 | 90 | 1008.0 |
| 20260506101054 | 74 | 161 | 2.0 | 6.0 | 0.00 | 0.00 | 0.00 | 90 | 1008.1 |
| 20260506100552 | 74 | 182 | 0.0 | 10.0 | 0.00 | 0.00 | 0.00 | 90 | 1008.0 |
| 20260506100053 | 74 | 215 | 2.0 | 10.0 | 0.00 | 0.00 | 0.00 | 90 | 1007.9 |
| 20260506095552 | 74 | 182 | 3.0 | 10.0 | 0.00 | 0.00 | 0.00 | 90 | 1007.9 |
| 20260506095052 | 74 | 191 | 3.0 | 9.0 | 0.00 | 0.00 | 0.00 | 90 | 1007.9 |
| 20260506094554 | 74 | 211 | 4.0 | 9.0 | 0.00 | 0.00 | 0.00 | 90 | 1007.9 |
| 20260506094053 | 74 | 176 | 3.0 | 12.0 | 0.00 | 0.00 | 0.00 | 90 | 1007.8 |
| 20260506093553 | 74 | 148 | 3.0 | 12.0 | 0.00 | 0.00 | 0.00 | 90 | 1007.9 |
| 20260506093108 | 74 | 176 | 2.0 | 11.0 | 0.00 | 0.00 | 0.00 | 90 | 1007.9 |
| 20260506092552 | 74 | 178 | 3.0 | 11.0 | 0.00 | 0.00 | 0.00 | 90 | 1007.9 |
| 20260506092052 | 74 | 177 | 3.0 | 11.0 | 0.00 | 0.00 | 0.00 | 90 | 1007.7 |
| 20260506091554 | 74 | 186 | 2.0 | 10.0 | 0.00 | 0.00 | 0.00 | 90 | 1007.7 |
| 20260506091053 | 74 | 188 | 3.0 | 10.0 | 0.00 | 0.00 | 0.00 | 90 | 1007.7 |
| 20260506090553 | 74 | 184 | 3.0 | 12.0 | 0.00 | 0.00 | 0.00 | 90 | 1007.7 |
| 20260506090056 | 74 | 132 | 4.0 | 12.0 | 0.00 | 0.00 | 0.00 | 90 | 1007.7 |
| 20260506085553 | 74 | 148 | 2.0 | 12.0 | 0.00 | 0.00 | 0.00 | 90 | 1007.7 |
| 20260506085053 | 74 | 0 | 4.0 | 12.0 | 0.00 | 0.00 | 0.00 | 90 | 1007.8 |
| 20260506084557 | 74 | 97 | 3.0 | 14.0 | 0.00 | 0.00 | 0.00 | 90 | 1007.9 |
| 20260506084054 | 74 | 176 | 4.0 | 14.0 | 0.00 | 0.00 | 0.00 | 90 | 1007.9 |
| 20260506083552 | 74 | 154 | 4.0 | 10.0 | 0.00 | 0.00 | 0.00 | 90 | 1007.8 |
| 20260506083054 | 74 | 173 | 3.0 | 12.0 | 0.00 | 0.00 | 0.00 | 91 | 1007.8 |
| 20260506082556 | 74 | 162 | 2.0 | 12.0 | 0.00 | 0.00 | 0.00 | 91 | 1007.8 |
| 20260506082052 | 74 | 205 | 2.0 | 7.0 | 0.00 | 0.00 | 0.00 | 91 | 1008.0 |
| 20260506081551 | 74 | 163 | 2.0 | 10.0 | 0.00 | 0.00 | 0.00 | 91 | 1007.9 |
| 20260506081052 | 74 | 161 | 2.0 | 10.0 | 0.00 | 0.00 | 0.00 | 91 | 1007.8 |
| 20260506080552 | 74 | 201 | 2.0 | 6.0 | 0.00 | 0.00 | 0.00 | 90 | 1007.9 |
| 20260506080107 | 74 | 165 | 1.0 | 7.0 | 0.00 | 0.00 | 0.00 | 90 | 1007.9 |
| 20260506073105 | 74 | 138 | 1.0 | 8.0 | 0.00 | 0.00 | 0.00 | 90 | 1008.2 |
| 20260506072554 | 74 | 208 | 2.0 | 9.0 | 0.00 | 0.00 | 0.00 | 90 | 1008.1 |
| 20260506072056 | 75 | 119 | 3.0 | 9.0 | 0.00 | 0.00 | 0.00 | 90 | 1008.3 |
| 20260506071554 | 75 | 161 | 2.0 | 6.0 | 0.00 | 0.00 | 0.00 | 90 | 1008.5 |
| 20260506071052 | 75 | 0 | 1.0 | 7.0 | 0.00 | 0.00 | 0.00 | 90 | 1008.4 |
| 20260506070552 | 75 | 196 | 2.0 | 7.0 | 0.00 | 0.00 | 0.00 | 90 | 1008.3 |
| 20260506062053 | 75 | 165 | 2.0 | 8.0 | 0.00 | 0.00 | 0.00 | 90 | 1008.4 |
| 20260506061602 | 75 | 153 | 2.0 | 6.0 | 0.00 | 0.00 | 0.00 | 90 | 1008.5 |
| 20260506061052 | 75 | 165 | 1.0 | 7.0 | 0.00 | 0.00 | 0.00 | 90 | 1008.5 |
| 20260506060553 | 75 | 146 | 1.0 | 9.0 | 0.00 | 0.00 | 0.00 | 89 | 1008.6 |
| 20260506051053 | 75 | 215 | 2.0 | 8.0 | 0.00 | 0.00 | 0.00 | 89 | 1008.5 |
| 20260506050554 | 75 | 0 | 1.0 | 9.0 | 0.00 | 0.00 | 0.00 | 88 | 1008.3 |
| 20260506045054 | 76 | 178 | 3.0 | 11.0 | 0.00 | 0.00 | 0.00 | 88 | 1008.2 |
| 20260506044604 | 76 | 100 | 3.0 | 11.0 | 0.00 | 0.00 | 0.00 | 88 | 1008.1 |
| 20260506044053 | 76 | 135 | 1.0 | 10.0 | 0.00 | 0.00 | 0.00 | 88 | 1008.2 |
| 20260506043556 | 76 | 149 | 2.0 | 10.0 | 0.00 | 0.00 | 0.00 | 88 | 1008.3 |
| 20260506043053 | 76 | 194 | 3.0 | 8.0 | 0.00 | 0.00 | 0.00 | 88 | 1008.4 |
| 20260506042553 | 76 | 229 | 2.0 | 8.0 | 0.00 | 0.00 | 0.00 | 88 | 1008.3 |
| 20260506042054 | 76 | 87 | 1.0 | 9.0 | 0.00 | 0.00 | 0.00 | 88 | 1008.3 |
| 20260506041606 | 76 | 154 | 2.0 | 9.0 | 0.00 | 0.00 | 0.00 | 88 | 1008.2 |
| 20260506041056 | 76 | 165 | 1.0 | 9.0 | 0.00 | 0.00 | 0.00 | 87 | 1008.2 |
| 20260506040553 | 76 | 134 | 0.0 | 7.0 | 0.00 | 0.00 | 0.00 | 87 | 1008.2 |
| 20260506040101 | 76 | 166 | 2.0 | 7.0 | 0.00 | 0.00 | 0.00 | 87 | 1008.0 |
| 20260506035553 | 76 | 194 | 1.0 | 8.0 | 0.00 | 0.00 | 0.00 | 87 | 1008.0 |
| 20260506035053 | 76 | 145 | 2.0 | 8.0 | 0.00 | 0.00 | 0.00 | 87 | 1008.1 |
| 20260506034606 | 76 | 0 | 3.0 | 8.0 | 0.00 | 0.00 | 0.00 | 87 | 1008.0 |
| 20260506034053 | 77 | 175 | 1.0 | 10.0 | 0.00 | 0.00 | 0.00 | 87 | 1007.9 |
| 20260506033553 | 77 | 197 | 3.0 | 10.0 | 0.00 | 0.00 | 0.00 | 86 | 1007.9 |
| 20260506033057 | 77 | 121 | 2.0 | 8.0 | 0.00 | 0.00 | 0.00 | 86 | 1007.7 |
| 20260506032554 | 77 | 140 | 2.0 | 8.0 | 0.00 | 0.00 | 0.00 | 86 | 1007.5 |
| 20260506032054 | 77 | 132 | 2.0 | 8.0 | 0.00 | 0.00 | 0.00 | 86 | 1007.5 |
| 20260506031559 | 77 | 117 | 2.0 | 8.0 | 0.00 | 0.00 | 0.00 | 86 | 1007.3 |
| 20260506031054 | 77 | 105 | 2.0 | 8.0 | 0.00 | 0.00 | 0.00 | 85 | 1007.3 |
| 20260506030553 | 78 | 123 | 2.0 | 8.0 | 0.00 | 0.00 | 0.00 | 85 | 1007.3 |
| 20260506030057 | 78 | 175 | 3.0 | 8.0 | 0.00 | 0.00 | 0.00 | 85 | 1007.3 |
| 20260506025554 | 78 | 128 | 2.0 | 11.0 | 0.00 | 0.00 | 0.00 | 85 | 1007.2 |
| 20260506025053 | 78 | 198 | 2.0 | 11.0 | 0.00 | 0.00 | 0.00 | 84 | 1007.1 |
| 20260506024600 | 78 | 152 | 2.0 | 9.0 | 0.00 | 0.00 | 0.00 | 84 | 1007.0 |
| 20260506024053 | 79 | 144 | 2.0 | 12.0 | 0.00 | 0.00 | 0.00 | 83 | 1006.8 |
| 20260506023554 | 79 | 133 | 1.0 | 12.0 | 0.00 | 0.00 | 0.00 | 83 | 1006.7 |
| 20260506023057 | 79 | 130 | 2.0 | 9.0 | 0.00 | 0.00 | 0.00 | 82 | 1006.7 |
| 20260506022554 | 79 | 152 | 2.0 | 9.0 | 0.00 | 0.00 | 0.00 | 82 | 1006.6 |
| 20260506022054 | 80 | 137 | 4.0 | 9.0 | 0.00 | 0.00 | 0.00 | 81 | 1006.5 |
| 20260506021554 | 80 | 125 | 3.0 | 8.0 | 0.00 | 0.00 | 0.00 | 81 | 1006.5 |
| 20260506021057 | 80 | 145 | 2.0 | 8.0 | 0.00 | 0.00 | 0.00 | 80 | 1006.5 |
| 20260506020553 | 80 | 134 | 1.0 | 9.0 | 0.00 | 0.00 | 0.00 | 79 | 1006.5 |
| 20260506020117 | 80 | 0 | 2.0 | 9.0 | 0.00 | 0.00 | 0.00 | 79 | 1006.5 |
| 20260506015554 | 80 | 119 | 1.0 | 4.0 | 0.00 | 0.00 | 0.00 | 79 | 1006.4 |
| 20260506015053 | 80 | 123 | 1.0 | 6.0 | 0.00 | 0.00 | 0.00 | 79 | 1006.4 |
| 20260506014554 | 80 | 0 | 0.0 | 6.0 | 0.00 | 0.00 | 0.00 | 79 | 1006.2 |
| 20260506014056 | 80 | 118 | 0.0 | 4.0 | 0.00 | 0.00 | 0.00 | 79 | 1006.2 |
| 20260506013553 | 80 | 0 | 0.0 | 3.0 | 0.00 | 0.00 | 0.00 | 78 | 1006.2 |
| 20260506013052 | 81 | 103 | 0.0 | 3.0 | 0.00 | 0.00 | 0.00 | 78 | 1006.0 |
| 20260506012553 | 81 | 94 | 0.0 | 4.0 | 0.00 | 0.00 | 0.00 | 78 | 1006.0 |
| 20260506012053 | 81 | 0 | 0.0 | 4.0 | 0.00 | 0.00 | 0.00 | 78 | 1006.0 |
| 20260506011552 | 81 | 0 | 1.0 | 4.0 | 0.00 | 0.00 | 0.00 | 77 | 1006.0 |
| 20260506011055 | 81 | 0 | 1.0 | 4.0 | 0.00 | 0.00 | 0.00 | 77 | 1005.9 |
| 20260506010553 | 81 | 132 | 0.0 | 4.0 | 0.00 | 0.00 | 0.00 | 77 | 1005.8 |
| 20260506010055 | 82 | 0 | 0.0 | 4.0 | 0.00 | 0.00 | 0.00 | 76 | 1005.8 |
| 20260506005554 | 82 | 96 | 0.0 | 4.0 | 0.00 | 0.00 | 0.00 | 76 | 1005.8 |
| 20260506005053 | 82 | 92 | 0.0 | 4.0 | 0.00 | 0.00 | 0.00 | 75 | 1005.7 |
| 20260506004551 | 83 | 93 | 1.0 | 4.0 | 0.00 | 0.00 | 0.00 | 74 | 1005.7 |
| 20260506004053 | 83 | 0 | 1.0 | 6.0 | 0.00 | 0.00 | 0.00 | 73 | 1005.7 |
| 20260506003553 | 83 | 111 | 1.0 | 6.0 | 0.00 | 0.00 | 0.00 | 73 | 1005.7 |
| 20260506003053 | 83 | 0 | 0.0 | 3.0 | 0.00 | 0.00 | 0.00 | 73 | 1005.7 |
| 20260506002553 | 83 | 144 | 0.0 | 3.0 | 0.00 | 0.00 | 0.00 | 73 | 1005.7 |
| 20260506002053 | 83 | 146 | 0.0 | 6.0 | 0.00 | 0.00 | 0.00 | 73 | 1005.6 |
| 20260506001603 | 83 | 0 | 0.0 | 6.0 | 0.00 | 0.00 | 0.00 | 72 | 1005.6 |
| 20260506001053 | 83 | 150 | 1.0 | 3.0 | 0.00 | 0.00 | 0.00 | 72 | 1005.6 |
| 20260506000559 | 83 | 0 | 1.0 | 4.0 | 0.00 | 0.00 | 0.00 | 72 | 1005.5 |
| 20260506000121 | 83 | 0 | 0.0 | 4.0 | 0.00 | 0.00 | 0.00 | 72 | 1005.6 |
| 20260505235552 | 83 | 123 | 1.0 | 4.0 | 0.00 | 0.00 | 0.00 | 72 | 1005.5 |
| 20260505235052 | 83 | 0 | 1.0 | 4.0 | 0.00 | 0.00 | 0.00 | 72 | 1005.5 |
| 20260505234552 | 84 | 113 | 2.0 | 4.0 | 0.00 | 0.00 | 0.00 | 71 | 1005.4 |
| 20260505234055 | 84 | 114 | 0.0 | 4.0 | 0.00 | 0.00 | 0.00 | 71 | 1005.4 |
| 20260505233553 | 84 | 114 | 2.0 | 7.0 | 0.00 | 0.00 | 0.00 | 72 | 1005.5 |
| 20260505233054 | 84 | 0 | 2.0 | 7.0 | 0.00 | 0.00 | 0.00 | 71 | 1005.4 |
| 20260505232551 | 84 | 84 | 2.0 | 7.0 | 0.00 | 0.00 | 0.00 | 71 | 1005.4 |
| 20260505232053 | 84 | 135 | 0.0 | 7.0 | 0.00 | 0.00 | 0.00 | 71 | 1005.4 |
| 20260505231557 | 84 | 134 | 1.0 | 7.0 | 0.00 | 0.00 | 0.00 | 70 | 1005.4 |
| 20260505231053 | 85 | 204 | 3.0 | 10.0 | 0.00 | 0.00 | 0.00 | 69 | 1005.3 |
| 20260505230553 | 85 | 205 | 3.0 | 10.0 | 0.00 | 0.00 | 0.00 | 68 | 1005.4 |
| 20260505230052 | 85 | 174 | 3.0 | 10.0 | 0.00 | 0.00 | 0.00 | 69 | 1005.4 |
| 20260505225554 | 85 | 159 | 3.0 | 10.0 | 0.00 | 0.00 | 0.00 | 68 | 1005.4 |
| 20260505225053 | 85 | 186 | 3.0 | 9.0 | 0.00 | 0.00 | 0.00 | 68 | 1005.4 |
| 20260505224552 | 86 | 125 | 1.0 | 9.0 | 0.00 | 0.00 | 0.00 | 68 | 1005.4 |
| 20260505224054 | 85 | 184 | 1.0 | 10.0 | 0.00 | 0.00 | 0.00 | 69 | 1005.4 |
| 20260505223554 | 85 | 203 | 4.0 | 10.0 | 0.00 | 0.00 | 0.00 | 69 | 1005.5 |
| 20260505223059 | 85 | 144 | 2.0 | 7.0 | 0.00 | 0.00 | 0.00 | 69 | 1005.4 |
| 20260505222551 | 85 | 195 | 2.0 | 7.0 | 0.00 | 0.00 | 0.00 | 69 | 1005.5 |
| 20260505222052 | 84 | 212 | 2.0 | 9.0 | 0.00 | 0.00 | 0.00 | 69 | 1005.4 |
| 20260505221558 | 85 | 161 | 3.0 | 10.0 | 0.00 | 0.00 | 0.00 | 69 | 1005.5 |
| 20260505221051 | 85 | 219 | 2.0 | 10.0 | 0.00 | 0.00 | 0.00 | 69 | 1005.5 |
| 20260505220553 | 85 | 153 | 3.0 | 10.0 | 0.00 | 0.00 | 0.00 | 68 | 1005.6 |
| 20260505220105 | 85 | 202 | 3.0 | 10.0 | 0.00 | 0.00 | 0.00 | 69 | 1005.5 |
| 20260505215553 | 85 | 178 | 2.0 | 8.0 | 0.00 | 0.00 | 0.00 | 69 | 1005.6 |
| 20260505215053 | 84 | 136 | 3.0 | 8.0 | 0.00 | 0.00 | 0.00 | 69 | 1005.6 |
| 20260505214601 | 84 | 163 | 2.0 | 6.0 | 0.00 | 0.00 | 0.00 | 70 | 1005.8 |
| 20260505214053 | 84 | 168 | 2.0 | 8.0 | 0.00 | 0.00 | 0.00 | 69 | 1005.7 |
| 20260505213553 | 84 | 148 | 2.0 | 12.0 | 0.00 | 0.00 | 0.00 | 69 | 1005.9 |
| 20260505213052 | 85 | 201 | 2.0 | 12.0 | 0.00 | 0.00 | 0.00 | 69 | 1005.9 |
| 20260505212552 | 85 | 185 | 2.0 | 8.0 | 0.00 | 0.00 | 0.00 | 68 | 1006.0 |
| 20260505212052 | 84 | 150 | 2.0 | 8.0 | 0.00 | 0.00 | 0.00 | 69 | 1006.0 |
| 20260505211626 | 84 | 139 | 3.0 | 9.0 | 0.00 | 0.00 | 0.00 | 69 | 1006.1 |
| 20260505211054 | 84 | 240 | 3.0 | 9.0 | 0.00 | 0.00 | 0.00 | 69 | 1006.1 |
| 20260505210552 | 84 | 165 | 3.0 | 9.0 | 0.00 | 0.00 | 0.00 | 69 | 1006.2 |
| 20260505210055 | 83 | 178 | 2.0 | 9.0 | 0.00 | 0.00 | 0.00 | 71 | 1006.4 |
| 20260505205552 | 83 | 112 | 2.0 | 9.0 | 0.00 | 0.00 | 0.00 | 70 | 1006.5 |
| 20260505205055 | 84 | 178 | 2.0 | 9.0 | 0.00 | 0.00 | 0.00 | 69 | 1006.6 |
| 20260505204602 | 84 | 159 | 3.0 | 8.0 | 0.00 | 0.00 | 0.00 | 69 | 1006.6 |
| 20260505204053 | 85 | 119 | 2.0 | 7.0 | 0.00 | 0.00 | 0.00 | 68 | 1006.7 |
| 20260505203553 | 84 | 152 | 2.0 | 9.0 | 0.00 | 0.00 | 0.00 | 70 | 1006.7 |
| 20260505203058 | 85 | 208 | 1.0 | 9.0 | 0.00 | 0.00 | 0.00 | 70 | 1006.8 |
| 20260505202553 | 84 | 149 | 3.0 | 9.0 | 0.00 | 0.00 | 0.00 | 69 | 1007.0 |
| 20260505202053 | 84 | 155 | 3.0 | 8.0 | 0.00 | 0.00 | 0.00 | 70 | 1007.0 |
| 20260505201552 | 84 | 189 | 3.0 | 9.0 | 0.00 | 0.00 | 0.00 | 69 | 1007.0 |
| 20260505201053 | 84 | 164 | 4.0 | 9.0 | 0.00 | 0.00 | 0.00 | 70 | 1007.0 |
| 20260505200550 | 83 | 161 | 3.0 | 7.0 | 0.00 | 0.00 | 0.00 | 72 | 1007.1 |
| 20260505200055 | 82 | 214 | 2.0 | 6.0 | 0.00 | 0.00 | 0.00 | 73 | 1007.2 |
| 20260505195552 | 83 | 157 | 2.0 | 8.0 | 0.00 | 0.00 | 0.00 | 71 | 1007.3 |
| 20260505195055 | 83 | 208 | 3.0 | 8.0 | 0.00 | 0.00 | 0.00 | 71 | 1007.3 |
| 20260505194554 | 83 | 177 | 2.0 | 6.0 | 0.00 | 0.00 | 0.00 | 71 | 1007.4 |
| 20260505194053 | 83 | 215 | 3.0 | 7.0 | 0.00 | 0.00 | 0.00 | 72 | 1007.5 |
| 20260505193553 | 83 | 163 | 1.0 | 7.0 | 0.00 | 0.00 | 0.00 | 73 | 1007.4 |
| 20260505193053 | 82 | 164 | 4.0 | 9.0 | 0.00 | 0.00 | 0.00 | 72 | 1007.5 |
| 20260505192556 | 82 | 184 | 4.0 | 9.0 | 0.00 | 0.00 | 0.00 | 72 | 1007.5 |
| 20260505192053 | 83 | 169 | 3.0 | 9.0 | 0.00 | 0.00 | 0.00 | 71 | 1007.6 |
| 20260505191603 | 82 | 236 | 3.0 | 9.0 | 0.00 | 0.00 | 0.00 | 73 | 1007.6 |
| 20260505191055 | 82 | 186 | 3.0 | 8.0 | 0.00 | 0.00 | 0.00 | 72 | 1007.7 |
| 20260505190554 | 82 | 145 | 3.0 | 11.0 | 0.00 | 0.00 | 0.00 | 73 | 1007.7 |
| 20260505190108 | 82 | 191 | 4.0 | 11.0 | 0.00 | 0.00 | 0.00 | 74 | 1007.8 |
| 20260505185553 | 81 | 198 | 3.0 | 10.0 | 0.00 | 0.00 | 0.00 | 74 | 1008.0 |
| 20260505185050 | 81 | 203 | 5.0 | 10.0 | 0.00 | 0.00 | 0.00 | 75 | 1008.3 |
| 20260505184600 | 80 | 145 | 2.0 | 8.0 | 0.00 | 0.00 | 0.00 | 76 | 1008.2 |
| 20260505184054 | 80 | 246 | 3.0 | 7.0 | 0.00 | 0.00 | 0.00 | 77 | 1008.3 |
| 20260505183549 | 79 | 214 | 2.0 | 8.0 | 0.00 | 0.00 | 0.00 | 77 | 1008.4 |
| 20260505183101 | 79 | 187 | 3.0 | 8.0 | 0.00 | 0.00 | 0.00 | 78 | 1008.4 |
| 20260505182553 | 79 | 187 | 2.0 | 9.0 | 0.00 | 0.00 | 0.00 | 78 | 1008.5 |
| 20260505182053 | 79 | 200 | 4.0 | 9.0 | 0.00 | 0.00 | 0.00 | 77 | 1008.7 |
| 20260505181640 | 78 | 207 | 3.0 | 10.0 | 0.00 | 0.00 | 0.00 | 79 | 1008.7 |
| 20260505181055 | 78 | 201 | 3.0 | 10.0 | 0.00 | 0.00 | 0.00 | 78 | 1008.6 |
| 20260505180554 | 78 | 202 | 2.0 | 9.0 | 0.00 | 0.00 | 0.00 | 79 | 1008.7 |
| 20260505180108 | 78 | 211 | 2.0 | 9.0 | 0.00 | 0.00 | 0.00 | 80 | 1008.6 |
| 20260505175553 | 78 | 265 | 4.0 | 8.0 | 0.00 | 0.00 | 0.00 | 80 | 1008.6 |